Location: Estes Park
(40.3770°N, 105.5210°W)
Time: 12:09:25
(UTC-06:00)

Vanguard 2 - All Passes

Search period start: 23 June 2018 00:00
Search period end: 03 July 2018 00:00
Orbit: 553 x 2939 km, 32.9° (Epoch: 22 June)

Date Brightness Start Highest point End Pass type
(mag) Time Alt. Az. Time Alt. Az. Time Alt. Az.
23 Jun - 02:22:12 10° SSW 02:28:34 20° SSE 02:33:14 10° ESE visible
23 Jun - 04:30:59 10° SW 04:37:10 33° S 04:41:28 10° ESE visible
23 Jun - 06:40:42 10° WSW 06:45:03 30° S 06:48:37 10° SE daylight
23 Jun - 08:50:57 10° SW 08:52:32 12° SSW 08:54:06 10° S daylight
24 Jun - 00:33:57 10° S 00:37:19 12° SSE 00:40:17 10° SE visible
24 Jun - 02:39:11 10° SW 02:46:38 26° SSE 02:51:47 10° ESE visible
24 Jun - 04:48:52 10° WSW 04:55:09 37° S 04:59:28 10° ESE visible
24 Jun - 06:58:52 10° WSW 07:02:56 26° SSW 07:06:19 10° SE daylight
25 Jun - 00:48:40 10° S 00:55:26 17° SSE 01:00:40 10° ESE visible
25 Jun - 02:56:34 10° SW 03:04:42 33° SSE 03:10:03 10° ESE visible
25 Jun - 05:06:52 10° WSW 05:13:07 39° S 05:17:25 10° ESE daylight
25 Jun - 07:17:11 10° WSW 07:20:45 21° SSW 07:23:50 10° SSE daylight
26 Jun - 01:04:53 10° SSW 01:13:33 23° SSE 01:19:43 10° ESE visible
26 Jun - 03:14:14 10° SW 03:22:45 38° S 03:28:10 10° ESE visible
26 Jun - 05:24:58 10° WSW 05:31:03 38° S 05:35:17 10° ESE daylight
26 Jun - 07:35:44 10° WSW 07:38:31 16° SSW 07:41:01 10° SSE daylight
26 Jun - 23:16:22 10° S 23:21:45 13° SSE 23:26:23 10° SE night (unlit)
27 Jun - 01:21:46 10° SW 01:31:38 30° SSE 01:38:16 10° ESE visible
27 Jun - 03:32:07 10° WSW 03:40:46 43° S 03:46:11 10° ESE visible
27 Jun - 05:43:09 10° WSW 05:48:57 34° SSW 05:53:03 10° SE daylight
27 Jun - 07:55:13 10° SW 07:56:14 11° SSW 07:57:12 10° SSW daylight
27 Jun - 23:31:07 10° S 23:39:51 19° SSE 23:46:38 10° ESE visible
28 Jun - 01:39:03 10° SW 01:49:44 36° SSE 01:56:34 10° E visible
28 Jun - 03:50:08 10° WSW 03:58:46 46° S 04:04:09 10° ESE visible
28 Jun - 06:01:24 10° WSW 06:06:47 29° SSW 06:10:42 10° SE daylight
28 Jun - 23:47:11 10° SSW 23:57:57 25° SSE 00:05:46 10° ESE visible
29 Jun - 01:56:40 10° SW 02:07:48 43° S 02:14:43 10° E visible
29 Jun - 04:08:16 10° WSW 04:16:45 46° S 04:22:03 10° ESE visible
29 Jun - 06:19:47 10° WSW 06:24:32 23° SSW 06:28:09 10° SSE daylight
29 Jun - 21:59:17 10° S 22:05:41 14° SE 22:11:19 10° ESE visible
30 Jun - 00:03:55 10° SSW 00:16:03 32° SSE 00:24:23 10° E visible
30 Jun - 02:14:31 10° WSW 02:25:52 48° S 02:32:47 10° E visible
30 Jun - 04:26:27 10° W 04:34:42 44° SSW 04:39:53 10° ESE visible
30 Jun - 06:38:26 10° WSW 06:42:13 17° SSW 06:45:16 10° S daylight
30 Jun - 22:13:42 10° S 22:23:43 20° SSE 22:31:52 10° ESE visible
01 Jul - 00:21:05 10° SW 00:34:08 39° SSE 00:42:44 10° E visible
01 Jul - 02:32:32 10° WSW 02:43:55 52° S 02:50:46 10° ESE visible
01 Jul - 04:44:42 10° W 04:52:34 39° SSW 04:57:38 10° SE visible
01 Jul - 06:57:49 10° WSW 06:59:47 12° SW 07:01:35 10° SSW daylight
01 Jul - 22:29:31 10° SSW 22:41:46 26° SSE 22:51:11 10° E visible
02 Jul - 00:38:35 10° SW 00:52:13 45° SSE 01:00:56 10° E visible
02 Jul - 02:50:39 10° WSW 03:01:57 53° S 03:08:42 10° ESE visible
02 Jul - 05:03:02 10° W 05:10:22 33° SSW 05:15:14 10° SE visible
02 Jul - 20:43:12 10° SSE 20:49:14 13° SE 20:54:49 10° ESE daylight
02 Jul - 22:46:03 10° SSW 22:59:47 33° SSE 23:09:56 10° E visible
